Dewpoint
68 70 70 71 71 71 70 71 72 73 74 73 73 73 73 72 72 72 72 71 71 71 71 71 70 69 70 70 70 70 69 69 69 69 70 69 69 70 70 70 70 67 71
71 72 72 71 71 71 71 71 73 73 73 73 73 73 72 73 72 72 71 71 71 71 71 70 70 70 70 70 71 70 70 69 68 69 70 70 70 69 69 70 69 70 71
69 70 70 72 72 71 72 73 73 73 73 73 72 72 72 72 72 73 72 72 71 71 71 71 71 70 70 70 70 70 70 69 69 69 68 65 64 68 67 70 71 71 71
67 67 68 72 73 72 73 73 73 72 73 72 72 72 73 72 72 72 71 71 72 71 71 71 70 70 70 70 69 69 70 70 68 68 69 61 62 68 69 69 70 70 71
66 66 69 73 74 73 73 73 73 72 72 73 73 72 73 72 72 72 72 71 71 72 71 70 70 69 69 69 69 70 70 70 69 67 66 67 64 69 70 70 70 70 68
65 65 72 73 73 73 73 73 72 72 72 72 72 72 72 72 72 71 72 69 71 71 71 70 70 70 68 68 68 70 70 71 69 62 64 66 67 70 70 69 69 69 68
64 66 69 74 73 73 73 73 72 72 72 72 72 72 72 72 72 71 72 71 71 71 70 70 70 70 69 70 70 69 71 69 65 64 64 68 68 69 70 70 70 70 70
63 64 68 73 73 74 73 72 72 72 72 72 72 72 72 72 72 72 72 71 71 70 70 69 69 70 70 70 71 67 69 67 67 64 64 65 69 70 70 70 70 70 70
64 63 66 68 71 72 74 72 72 72 72 72 72 72 72 71 71 71 71 71 70 70 69 69 69 69 70 70 71 68 68 66 67 67 64 64 70 70 71 70 70 71 71
64 62 63 65 66 69 70 72 72 72 72 72 72 72 72 71 71 71 70 71 70 69 69 69 69 69 68 69 69 70 69 67 65 67 63 67 70 70 69 70 67 71 70
63 62 62 63 65 67 67 70 72 72 72 72 72 72 71 67 68 69 71 71 70 69 69 69 68 68 69 69 69 69 70 61 61 62 64 69 71 70 70 70 69 69 67
62 62 61 62 64 65 64 67 67 66 65 65 65 68 67 68 69 69 70 71 69 70 70 70 69 69 67 57 59 63 55 61 61 61 63 69 69 69 69 69 70 69 68
62 62 62 63 64 65 63 66 65 65 64 67 69 68 68 69 69 67 67 67 65 67 67 66 67 63 68 61 60 57 56 57 58 57 65 69 69 69 68 70 70 70 69
62 62 63 64 65 65 64 65 64 63 64 64 65 69 69 68 68 68 66 66 66 64 66 64 65 64 65 68 62 57 57 54 55 55 65 68 69 68 68 68 70 68 69
61 62 63 65 67 66 66 64 62 63 63 63 66 67 67 67 69 68 68 67 67 65 65 67 65 64 67 65 64 58 54 56 56 55 60 68 68 67 67 69 70 70 69
61 62 63 65 67 67 67 67 65 66 64 65 64 63 69 68 69 67 68 66 66 66 67 66 66 67 64 62 62 58 55 56 57 57 57 63 68 68 67 70 68 70 70
62 62 64 66 67 68 69 69 68 65 65 64 63 65 68 69 71 71 68 67 65 69 67 67 66 66 62 59 62 59 56 56 55 57 58 59 64 67 68 69 69 69 70
63 64 65 65 66 68 68 69 67 65 65 63 62 63 67 70 72 71 69 67 67 69 67 66 65 64 62 59 58 58 56 55 56 56 56 58 59 62 66 67 68 69 69
65 66 67 67 67 68 69 69 68 66 66 63 62 62 67 70 71 71 70 68 70 68 67 66 67 65 61 58 55 57 56 56 54 57 58 58 59 59 61 66 67 67 68
65 67 68 68 68 69 69 70 67 65 65 64 63 63 66 69 70 72 69 68 68 68 67 69 67 65 61 54 52 56 57 56 55 56 56 56 60 60 61 63 65 66 67
64 66 68 68 69 70 68 67 65 63 63 63 63 66 69 70 71 72 70 68 68 68 68 68 68 66 60 58 56 55 57 58 56 56 55 53 55 56 59 61 62 65 65
63 66 68 68 69 70 69 67 64 63 62 63 64 67 70 71 72 72 72 70 68 68 69 69 68 62 61 57 55 54 53 54 54 55 56 55 54 52 54 58 62 64 62
62 65 67 69 69 70 68 67 66 65 65 64 65 67 69 71 71 73 71 70 70 69 69 70 69 66 59 58 61 56 51 50 53 56 57 55 57 54 56 58 58 61 60
62 65 67 69 70 70 70 67 67 64 64 64 66 65 67 71 71 71 72 71 71 69 69 70 69 67 67 58 58 58 61 60 52 53 56 56 56 55 56 54 56 57 58
61 64 66 69 71 71 71 69 68 67 65 65 65 66 70 70 71 70 71 71 72 72 70 71 70 70 66 61 54 58 59 58 58 54 53 54 56 55 55 56 54 55 58
60 63 65 69 72 72 71 71 71 70 68 65 66 65 66 68 69 70 70 70 70 71 71 71 71 70 68 64 56 57 56 54 54 54 52 54 53 54 55 55 56 55 55
Wind_Speed
18 17 18 15 13 13 13 15 15 16 16 15 14 13 13 12 11 8 8 11 10 11 11 10 10 9 9 9 9 9 10 9 8 7 9 10 10 10 9 4 5 15 12
18 20 18 18 17 14 13 14 14 16 16 14 13 13 12 11 11 10 10 12 12 11 10 9 8 8 8 7 7 8 8 8 8 5 9 11 9 10 7 6 11 14 13
23 18 20 16 18 16 15 15 16 16 15 14 13 12 11 11 9 8 11 11 11 11 9 8 7 7 6 5 5 7 8 8 9 7 6 7 13 7 8 9 14 12 12
25 22 22 17 18 19 17 16 16 16 15 14 12 11 10 10 8 9 9 9 10 10 9 8 7 6 4 4 3 5 5 6 7 6 7 7 13 8 8 9 10 11 12
24 22 22 19 19 20 19 17 15 15 14 13 11 10 9 10 9 7 6 10 10 9 9 8 8 6 4 2 3 4 4 5 5 6 5 5 7 11 8 10 12 11 7
24 23 21 20 20 19 17 17 16 15 13 12 10 9 9 8 8 7 9 9 8 9 7 7 7 7 5 4 6 6 6 6 9 6 5 8 6 11 8 8 11 10 10
23 24 22 20 18 18 17 16 15 14 12 11 10 9 8 7 7 7 8 8 8 7 7 7 6 7 8 6 6 7 8 5 5 5 5 12 11 9 9 9 10 9 9
23 25 23 19 18 16 18 16 15 13 12 10 9 8 8 7 6 7 8 8 7 6 6 6 6 7 7 9 8 6 8 2 5 6 6 9 11 8 9 11 9 9 9
22 24 22 21 18 16 17 15 14 13 11 10 8 7 6 6 5 6 6 7 6 6 5 6 6 6 5 7 8 7 7 1 5 4 7 9 8 7 10 9 9 10 9
21 23 22 21 19 17 17 14 13 11 10 9 7 6 5 5 4 5 5 6 5 5 3 3 3 3 4 3 5 7 8 9 8 7 7 13 7 7 7 9 9 9 8
21 22 23 21 19 16 15 14 12 9 8 7 8 5 8 2 4 7 9 4 4 4 3 2 3 3 5 10 5 7 13 4 3 5 11 10 6 6 5 7 8 8 8
25 23 22 20 19 17 15 15 12 11 11 8 6 5 4 3 2 3 4 3 3 3 4 2 0 4 12 5 9 12 7 8 1 3 13 8 4 1 5 7 7 7 7
25 23 22 20 18 18 13 13 11 9 7 7 6 5 2 1 1 2 4 6 6 7 10 11 9 4 10 11 6 7 7 6 7 4 13 6 5 4 4 6 8 8 7
24 23 21 20 18 17 14 13 11 9 8 7 8 6 4 6 3 1 1 1 4 3 2 1 8 3 1 4 1 6 6 3 4 3 14 7 5 5 5 7 8 8 8
25 23 22 20 18 17 14 13 11 9 9 8 6 7 5 4 1 1 1 1 1 2 3 5 2 4 3 2 2 3 5 6 4 2 10 7 4 3 1 6 8 9 8
23 23 21 21 19 17 16 11 10 9 8 8 7 7 7 5 2 1 2 1 1 2 8 2 2 3 2 2 7 3 3 8 7 1 6 11 6 3 2 4 7 10 10
24 23 22 21 20 19 17 15 12 10 10 9 8 7 8 7 5 3 2 3 2 4 3 1 2 4 4 5 4 4 2 2 6 5 2 5 14 8 4 5 6 7 7
22 23 22 21 21 20 18 15 13 12 11 10 9 9 10 8 6 6 1 4 1 1 2 1 2 6 1 1 3 2 4 6 3 3 7 2 2 13 11 5 6 8 7
22 22 22 21 21 21 18 16 15 13 12 11 10 11 11 10 9 9 5 6 4 4 2 2 1 4 3 3 1 3 3 6 4 10 6 2 5 3 10 10 6 6 6
22 21 22 21 20 20 17 16 15 14 13 12 12 12 10 11 10 10 8 4 6 2 1 3 1 3 3 3 4 6 6 6 4 5 7 9 7 5 4 2 9 11 5
24 23 23 23 23 21 20 19 18 17 15 14 13 12 11 11 10 10 11 5 6 4 1 5 4 4 3 3 6 6 7 5 4 4 4 8 5 3 3 4 7 6 10
27 25 24 24 24 23 20 18 16 16 15 15 14 14 14 12 12 12 11 8 8 2 4 4 4 3 2 5 1 1 7 8 6 3 3 4 4 6 6 4 5 3 2
29 28 27 26 24 23 19 17 15 14 14 15 16 15 15 13 12 12 10 10 7 7 8 5 6 4 2 4 3 4 3 1 6 7 5 3 3 5 6 5 6 5 2
32 29 27 26 25 23 23 21 21 19 19 17 16 16 14 14 13 12 10 9 10 8 4 5 5 4 5 4 6 6 4 6 3 7 8 6 5 5 4 4 6 6 5
29 28 28 26 25 23 23 22 22 20 18 15 16 15 15 14 15 14 12 9 10 9 7 5 5 7 6 5 6 6 6 6 5 5 5 10 8 7 7 7 4 4 5
29 28 27 28 27 27 27 28 23 22 20 18 17 17 16 17 16 17 15 13 12 11 9 9 8 9 9 7 6 6 7 6 6 6 6 4 5 10 9 7 6 6 5
Wind_Direction
173 174 170 159 151 142 128 120 124 127 128 125 121 119 108 102 100 91 75 79 83 89 86 91 93 86 84 85 90 88 87 87 88 99 104 98 103 102 98 122 200 104 104
146 170 170 156 150 145 132 131 134 131 126 123 121 112 107 104 95 92 82 84 85 85 93 96 90 91 93 95 96 91 95 97 98 109 114 104 98 98 107 60 56 100 104
150 144 155 149 151 147 142 142 137 131 126 123 118 114 113 107 108 90 87 84 80 84 86 80 89 91 100 107 104 96 89 85 104 107 182 99 96 106 105 94 90 104 106
145 160 148 148 152 150 150 144 137 133 127 125 121 120 117 106 100 87 84 91 89 84 74 74 76 77 84 94 95 88 103 99 109 148 249 120 109 115 114 117 125 113 107
153 156 134 151 148 146 146 139 136 133 131 128 125 121 111 105 94 94 76 78 82 74 74 68 64 75 88 113 93 110 114 137 137 214 91 7 94 110 121 125 128 125 130
152 141 142 151 142 140 140 139 138 135 133 130 124 121 114 107 94 78 72 74 72 76 79 84 79 70 78 72 87 116 105 134 209 94 122 82 77 110 122 124 93 102 110
151 139 150 147 144 143 143 143 141 138 136 131 129 119 115 106 100 91 68 76 82 84 81 78 82 71 80 83 92 112 116 137 115 94 85 139 107 115 105 109 112 119 114
147 148 142 144 146 148 146 144 142 141 141 136 129 121 113 104 89 72 73 77 85 92 92 88 82 81 82 79 92 110 132 151 150 98 100 85 108 128 119 110 112 113 120
153 149 153 155 150 150 142 146 143 143 143 142 139 133 124 113 98 86 76 74 80 92 94 93 84 77 76 83 97 101 144 0 103 103 128 125 120 128 128 123 113 115 111
161 152 158 156 159 163 153 151 146 146 148 142 144 149 147 156 146 129 154 86 99 103 97 73 77 86 89 93 112 135 158 202 74 146 121 89 123 136 133 132 127 118 113
168 164 162 165 162 168 162 158 158 159 157 154 166 168 195 163 137 169 74 75 107 119 98 64 45 53 173 137 142 182 204 69 79 81 102 117 139 150 151 144 143 134 127
170 174 168 169 168 171 175 164 179 176 184 183 181 170 216 116 59 333 103 107 113 139 147 156 135 250 236 129 130 200 19 77 163 71 86 114 137 129 154 162 158 156 145
172 176 172 173 175 177 178 180 185 188 186 180 196 219 168 226 150 227 117 171 159 183 191 193 177 345 7 355 62 337 81 181 124 98 99 124 141 153 155 171 162 167 169
176 178 177 174 177 187 182 192 191 194 196 203 187 198 217 223 160 349 158 84 211 196 103 259 46 347 16 36 18 2 27 21 70 74 119 145 165 145 157 183 177 174 178
181 181 180 176 179 188 195 195 203 208 200 204 194 188 229 237 208 229 79 284 310 183 151 40 353 352 16 189 223 51 35 60 356 11 110 126 148 153 138 175 183 182 184
187 184 181 183 183 191 196 197 201 208 208 215 206 197 209 246 199 247 204 208 244 286 42 335 18 276 345 48 113 37 17 65 39 262 109 131 146 170 177 176 179 181 185
192 186 186 187 187 193 198 195 205 205 213 208 213 201 216 223 198 285 226 247 266 54 264 264 255 293 58 109 125 75 94 87 80 99 107 99 146 152 143 157 171 177 186
193 190 191 192 190 193 198 197 207 209 213 212 205 202 209 216 228 228 168 278 272 193 285 208 331 332 53 85 95 202 72 79 95 120 73 351 350 133 145 139 164 177 180
196 192 194 194 193 194 198 202 206 203 215 210 209 208 195 215 224 247 216 241 263 194 213 226 244 263 65 9 226 149 93 75 38 86 99 116 83 347 107 132 159 171 184
194 196 198 195 196 194 193 203 204 202 208 214 212 213 205 216 224 233 245 231 251 311 209 142 253 54 17 28 90 95 82 87 69 99 118 98 108 166 111 117 168 147 156
200 197 198 198 196 192 195 198 203 205 204 212 216 214 213 224 225 229 247 210 242 241 214 165 189 149 120 131 153 135 119 143 122 116 78 71 102 74 89 120 230 131 139
200 200 199 201 199 198 196 200 203 205 207 210 209 208 218 227 230 231 235 211 223 215 202 186 218 156 94 157 256 188 157 155 148 121 96 99 44 98 114 97 101 67 136
202 201 201 201 201 199 205 197 198 206 220 210 212 209 213 222 220 220 225 207 203 245 199 191 198 229 134 168 258 303 177 142 153 164 181 143 162 112 106 110 106 124 134
204 201 203 202 203 199 199 196 199 204 205 209 212 212 212 211 215 213 222 208 210 227 245 193 202 240 246 181 181 217 314 348 265 164 178 190 195 198 144 179 139 136 145
201 202 202 203 204 202 196 211 197 211 210 208 215 212 214 204 218 215 213 213 216 225 206 228 196 219 199 259 210 179 206 211 223 291 173 176 212 217 194 213 181 174 187
202 202 201 200 203 202 199 205 208 205 218 212 208 209 216 219 209 219 216 210 218 226 221 211 206 209 227 218 230 222 218 210 196 220 231 214 239 181 215 214 203 232 206